Big Piney, WY

11:26 PM MDT on August 23, 2017 (GMT -0600)
Big Piney-Marbleton

Weather History for KBPI - August, 2014

Change the Weather History Date:

Tuesday, August 26, 2014

  Actual Average Record
Temperature  
Mean Temperature 55 °F 57 °F  
Max Temperature 67 °F 76 °F 88 °F (2010)
Min Temperature 42 °F 38 °F 19 °F (1992)
Degree Days  
Heating Degree Days 10 8  
Month to date heating degree days 123 132  
Since 1 June heating degree days 524 554  
Since 1 July heating degree days 177 249  
Cooling Degree Days 0 0  
Month to date cooling degree days 0 12  
Year to date cooling degree days 26 36  
Since 1 June cooling degree days 26 36  
Growing Degree Days 4 (Base 50)    
Moisture  
Dew Point 43 °F    
Average Humidity 66    
Maximum Humidity 96    
Minimum Humidity 36    
Precipitation  
Precipitation 0.02 in 0.01 in 0.25 in (1998)
Month to date precipitation 1.41 0.57  
Year to date precipitation 3.18 4.54  
Sea Level Pressure  
Sea Level Pressure 30.15 in    
Wind  
Wind Speed 6 mph (NW)    
Max Wind Speed 20 mph    
Max Gust Speed 31 mph    
Visibility 10 miles    
Events Rain , Thunderstorm    
T = Trace of Precipitation, MM = Missing Value Source: NWS Daily Summary

Daily Weather History Graph

Daily Weather History Graph

Search for Another Location

Airport or City:

Trip Planner

Search our weather history database for the weather conditions in past years. The results will help you decide how hot, cold, wet, or windy it might be!

Date:

Astronomy

Aug. 26, 2014 Rise Set
Actual Time 6:39 AM MDT 8:04 PM MDT
Civil Twilight 6:09 AM MDT 8:33 PM MDT
Nautical Twilight 5:34 AM MDT 9:09 PM MDT
Astronomical Twilight 4:56 AM MDT 9:46 PM MDT
Moon 7:45 AM MDT (8/26) 8:24 PM MDT (8/26)
Length of Visible Light 14h 24m
Length of Day
13h 25m
New Moon, 1% of the Moon is Illuminated
Aug 26
New Moon
Sep 2
First Quarter
Sep 8
Full
Sep 15
Last Quarter
Sep 24
New

Hourly Weather History & Observations

Time (MDT) Temp. Windchill Dew Point Humidity Pressure Visibility Wind Dir Wind Speed Gust Speed Precip Events Conditions
12:53 AM 43.0 °F 40.3 °F 39.9 °F 89% 30.07 in 10.0 mi NNW 4.6 mph - N/A   Clear
1:53 AM 43.0 °F 40.3 °F 41.0 °F 93% 30.06 in 10.0 mi ENE 4.6 mph - N/A   Scattered Clouds
2:53 AM 44.6 °F - 42.8 °F 93% 30.26 in 10.0 mi Calm Calm - N/A   Overcast
3:53 AM 45.0 °F 41.8 °F 43.0 °F 93% 30.08 in 10.0 mi SSE 5.8 mph - 0.00 in Rain Light Rain
4:53 AM 48.0 °F - 45.0 °F 89% 30.05 in 10.0 mi NNW 10.4 mph - 0.01 in Rain Light Rain
5:53 AM 46.9 °F - 45.0 °F 93% 30.12 in 9.0 mi SE 8.1 mph - 0.01 in Rain Light Rain
6:53 AM 46.0 °F 43.9 °F 45.0 °F 96% 30.12 in 10.0 mi NNW 4.6 mph - 0.00 in   Mostly Cloudy
7:53 AM 48.0 °F - 46.0 °F 93% 30.13 in 10.0 mi North 6.9 mph - N/A   Partly Cloudy
8:53 AM 51.8 °F - 48.2 °F 88% 30.30 in 10.0 mi Variable 4.6 mph - N/A   Scattered Clouds
9:21 AM 52.0 °F - 46.9 °F 83% 30.31 in 10.0 mi Calm Calm - N/A   Mostly Cloudy
9:53 AM 52.0 °F - 46.0 °F 80% 30.15 in 10.0 mi SSW 4.6 mph - N/A   Mostly Cloudy
10:53 AM 57.0 °F - 46.0 °F 67% 30.15 in 10.0 mi Variable 4.6 mph - N/A   Clear
11:53 AM 61.0 °F - 46.0 °F 58% 30.14 in 10.0 mi SSW 9.2 mph - N/A   Clear
12:53 PM 63.0 °F - 46.9 °F 56% 30.12 in 10.0 mi SSW 5.8 mph - N/A   Partly Cloudy
1:53 PM 64.9 °F - 46.9 °F 52% 30.10 in 10.0 mi South 5.8 mph - N/A   Clear
2:22 PM 66.9 °F - 48.0 °F 51% 30.30 in 10.0 mi SW 9.2 mph - N/A Thunderstorm Partly Cloudy
2:37 PM 64.9 °F - 46.9 °F 52% 30.30 in 10.0 mi SW 8.1 mph - N/A   Mostly Cloudy
2:53 PM 64.0 °F - 36.0 °F 35% 30.09 in 10.0 mi North - - 0.00 in Rain , Thunderstorm Light Rain
3:13 PM 64.0 °F - 37.0 °F 37% 30.29 in 10.0 mi WNW 4.6 mph - 0.00 in Rain Light Rain
3:21 PM 64.0 °F - 34.0 °F 33% 30.28 in 10.0 mi Variable 6.9 mph - 0.00 in Rain , Thunderstorm Light Rain
3:36 PM 62.1 °F - 37.9 °F 41% 30.28 in 10.0 mi SSE 9.2 mph - 0.00 in Rain Light Rain
3:53 PM 62.1 °F - 36.0 °F 38% 30.08 in 10.0 mi Variable 3.5 mph - 0.00 in Rain Light Rain
4:53 PM 63.0 °F - 39.9 °F 43% 30.06 in 10.0 mi SE 9.2 mph - 0.00 in   Overcast
5:53 PM 64.9 °F - 41.0 °F 42% 30.07 in 10.0 mi NNE 8.1 mph - N/A   Partly Cloudy
6:53 PM 62.1 °F - 43.0 °F 50% 30.09 in 10.0 mi North 8.1 mph - N/A   Partly Cloudy
7:53 PM 55.9 °F - 45.0 °F 67% 30.10 in 10.0 mi NNW 10.4 mph - N/A   Mostly Cloudy
8:53 PM 54.0 °F - 45.0 °F 72% 30.10 in 10.0 mi NNW 8.1 mph - N/A   Clear
9:53 PM 53.1 °F - 45.0 °F 74% 30.12 in 10.0 mi ENE 3.5 mph - N/A   Clear
10:53 PM 51.1 °F - 46.0 °F 83% 30.12 in 10.0 mi ENE 4.6 mph - N/A   Clear
11:53 PM 50.0 °F - 45.0 °F 83% 30.10 in 10.0 mi Calm Calm - N/A   Mostly Cloudy